Gulf - Port au Port: Past 24 Hour Conditions

 

St. Peters

02:00 PM ADT 24 October 2014
This table is a summary of hourly weather conditions for the past 24 hours.
Date / Time
(ADT)
Wind(knots) Conditions Visibility(km) Pressure(kPa) Air tempC) Relative humidity(%) Dew pointC)
24 October 2014
14:00 ENE 6 N/A N/A 100.1 12 93 11
13:00 ENE 10 gust 16 N/A N/A 100.2 12 93 11
12:00 ENE 9 gust 15 N/A N/A 100.3 12 95 11
11:00 ENE 10 gust 19 N/A N/A 100.4 11 94 10
10:00 ENE 13 gust 18 N/A N/A 100.4 11 93 10
9:00 NE 11 gust 20 N/A N/A 100.5 11 93 10
8:00 ENE 11 gust 16 N/A N/A 100.6 10 94 9
7:00 NE 15 gust 22 N/A N/A 100.6 10 94 9
6:00 NE 16 gust 24 N/A N/A 100.6 10 94 9
5:00 ENE 12 gust 21 N/A N/A 100.8 10 93 9
4:00 ENE 14 gust 22 N/A N/A 100.9 10 92 9
3:00 NE 13 gust 21 N/A N/A 101.0 10 91 9
2:00 NE 13 gust 18 N/A N/A 101.1 10 90 9
1:00 NE 11 gust 22 N/A N/A 101.3 10 90 9
0:00 ENE 13 gust 18 N/A N/A 101.3 10 87 8
23 October 2014
23:00 NE 14 gust 19 N/A N/A 101.4 10 86 8
22:00 NE 12 gust 19 N/A N/A 101.5 10 85 8
21:00 ENE 10 gust 16 N/A N/A 101.6 10 88 8
20:00 ENE 12 gust 19 N/A N/A 101.7 11 83 8
19:00 ENE 12 gust 19 N/A N/A 101.7 11 82 8
18:00 NE 12 gust 19 N/A N/A 101.7 11 84 8
17:00 ENE 7 N/A N/A 101.8 11 83 9
16:00 ENE 10 gust 17 N/A N/A 101.9 12 80 8
15:00 NE 11 gust 17 N/A N/A 102.0 12 76 8
14:00 ENE 11 gust 17 N/A N/A 102.1 12 73 8
 
Map of Atlantic - Newfoundland marine weather areas Southwestern Grand Banks - 44138 Banquereau - 44139 Tail of the Bank - 44140 Nickerson Bank - 44251 Northeast Burgeo Bank - 44255 Blanc-Sablon Airport Cap Whittle Chevery Natashquan Airport Heath Point Miscou Island Grand Étang Ingonish Beach North Mountain St.Paul Island J.A. Douglas McCurdy Sydney Airport Charlottetown Airport East Point North Cape Argentia Bonavista Burgeo Cape Race Corner Brook Daniel's Harbour Englee Ferolle Point La Scie Port aux Basques Rocky Harbour Sagona Island St. Anthony Airport St. John's Int'l Airport St. Lawrence Stephenville Airport Twillingate Winterland Wreckhouse Cartwright Airport Mary's Harbour Grates Cove Pool's Island Marticot Island Long Pond Îles de la Madeleine Airport
Legend: buoyBuoy land stationLand Station